YAOGAN-41

Last updated on Sun Oct 26 2025 00:02:59 GMT+0000 (Coordinated Universal Time)

1 58582U 23197A 25298.49959884 -.00000352 00000+0 00000+0 0 9991 2 58582 3.5785 310.0954 0012824 202.0969 185.0066 1.00273651 6978
UTC large
Height (km)
Speed (km/s)
/
Latitude / Longitude
Inclination (degrees)
Orbital Period (minutes)
Azimuth
Elevation
Range (km)
Doppler Factor

Next 0 passes for location: London (51.5072 / 0.1276)

Sorry there are no passes over London.